Location: Lac de la Montagne noire
(46.1952°N, 74.2701°W)
Time: 05:51:15
(UTC-04:00)

ISS - Pass Details

Date: 26 March 2019
Orbit: 408 x 410 km, 51.6° (Epoch: 24 April)

Event Time Altitude Azimuth Distance (km) Brightness Sun altitude
Rises 22:11:29 0° 288° (WNW) 2,336 1.1 -28.5°
Reaches altitude 10° 22:13:44 10° 299° (WNW) 1,474 -0.1 -28.8°
Enters shadow 22:14:43 17° 310° (NW) 1,133 -0.8 -28.9°
